15 daagse weersverwachting Reggio Calabria (IT)

  • Overzicht
  • Per uur
  • 15 dagen
  • Extra
  • Vergelijk
  • Kaarten
  • Dagkaart
  • Meer »
  • Info
  • Statistieken
  • Directe link
    Temp 6h Neerslag Wind  
 07:05     16:37    Daglengte: 9:32 Vandaag
19:00
11°
9.7 mm
7
 07:06     16:38    Daglengte: 9:32 Morgen
01:00
10°
5.4 mm
4
07:00
11°
3.6 mm
3
13:00
13°
 
2
19:00
12°
7.2 mm
3
 07:07     16:38    Daglengte: 9:31 Zaterdag 14 Dec
01:00
12°
26.5 mm
9
07:00
11°
31.9 mm
11
13:00
14°
19.7 mm
8
19:00
14°
53.1 mm
8
 07:07     16:38    Daglengte: 9:31 Zondag 15 Dec
01:00
14°
25.4 mm
6
07:00
14°
41.7 mm
4
Locatie info
Region: Calabria
Latitude: 38.1105°N
Longitude: 15.6613°E
110 masl
Temp/Neerslag /Baro Onweer/Dauwpunt
    Temp Baro 1h Neerslag Dauwpunt Wind UV Bewolking  
 07:05     16:37    Daglengte: 9:32 Vandaag
14:00
11°
1007.4 hPa 2.0 mm
81%
7.7°
4
Windvlaag: -1.7 km/h
84%
15:00
11°
1007.5 hPa 2.2 mm
78%
8.2°
5
Windvlaag: -2.3 km/h
57%
16:00
11°
1007.3 hPa 1.8 mm
71%
8.6°
5
Windvlaag: -3 km/h
51%
17:00
11°
1007.4 hPa 1.8 mm
70%
8.3°
6
Windvlaag: -2.8 km/h
54%
18:00
11°
1007.8 hPa 2.0 mm
23%
7.3°
6
Windvlaag: -2.9 km/h
41%
19:00
11°
1007.8 hPa
21%
6.6°
7
Windvlaag: -3.5 km/h
25%
20:00
11°
1007.4 hPa
66%
6.5°
6
Windvlaag: -3.5 km/h
55%
21:00
11°
1007.7 hPa
73%
6.6°
5
Windvlaag: -2.6 km/h
62%
22:00
11°
1007.7 hPa
68%
6.4°
4
Windvlaag: -1 km/h
61%
23:00
10°
1007.7 hPa 1.9 mm
67%
6.7°
3
Windvlaag: -0.9 km/h
59%
 07:06     16:38    Daglengte: 9:32 Morgen
00:00
11°
1007.3 hPa 1.4 mm
66%
7.4°
3
Windvlaag: -1.6 km/h
71%
01:00
10°
1007.1 hPa 2.1 mm
66%
7.8°
4
Windvlaag: -1.9 km/h
68%
02:00
10°
1007.0 hPa 1.6 mm
64%
7.6°
4
Windvlaag: -2.6 km/h
71%
03:00
10°
1006.8 hPa 2.1 mm
65%
7.3°
4
Windvlaag: -2.2 km/h
55%
04:00
10°
1006.3 hPa
65%
7.5°
4
Windvlaag: -2.1 km/h
40%
05:00
10°
1006.0 hPa
26%
7.5°
4
Windvlaag: -2.3 km/h
24%
06:00
10°
1006.0 hPa
25%
7.6°
4
Windvlaag: -2.2 km/h
13%
07:00
11°
1006.0 hPa
24%
7.7°
3
Windvlaag: -2.4 km/h
13%
08:00
11°
1006.1 hPa
21%
7.4°
3
Windvlaag: -2.5 km/h
13%
09:00
12°
1006.1 hPa
14%
7.0°
2
Windvlaag: -1.2 km/h
38%
10:00
13°
1005.9 hPa
14%
6.6°
2
Windvlaag: -0.2 km/h
32%
11:00
13°
1004.7 hPa
14%
6.3°
1
Windvlaag: 1.1 km/h
82%
12:00
13°
1003.5 hPa
17%
6.3°
2
Windvlaag: 1.5 km/h
79%
13:00
13°
1002.5 hPa
72%
6.4°
2
Windvlaag: 1.7 km/h
73%
14:00
13°
1002.0 hPa
80%
6.9°
3
Windvlaag: 2.1 km/h
84%
15:00
13°
1001.3 hPa
81%
7.5°
3
Windvlaag: 2.1 km/h
77%
16:00
12°
1000.7 hPa
77%
8.2°
3
Windvlaag: 1.1 km/h
88%
17:00
12°
1000.0 hPa 3.0 mm
76%
8.8°
4
Windvlaag: 0.8 km/h
77%
18:00
12°
999.5 hPa
77%
9.3°
3
Windvlaag: 0.7 km/h
88%
19:00
12°
998.7 hPa 4.2 mm
78%
9.6°
3
Windvlaag: -0.5 km/h
74%
20:00
12°
998.3 hPa 3.2 mm
82%
10.2°
3
Windvlaag: -2 km/h
69%
21:00
13°
997.6 hPa 3.0 mm
81%
10.2°
3
Windvlaag: -1.6 km/h
67% warningclass
22:00
13°
996.7 hPa 4.6 mm
78%
11.0°
4
Windvlaag: -0.3 km/h
81% warningclass
23:00
12°
996.4 hPa 4.7 mm
82%
10.1°
5
Windvlaag: -1.5 km/h
89%
 07:07     16:38    Daglengte: 9:31 Zaterdag 14 Dec
00:00
13°
996.1 hPa 4.9 mm
82%
9.9°
7
Windvlaag: -1.7 km/h
74%
01:00
12°
996.0 hPa 6.2 mm
81%
10.0°
9
Windvlaag: -2.6 km/h
66%
02:00
12°
995.9 hPa 5.7 mm
78%
9.5°
10
Windvlaag: -3.8 km/h
85%
03:00
12°
995.8 hPa 5.6 mm
81%
8.4°
10
Windvlaag: -4.4 km/h
62%
04:00
12°
995.9 hPa 4.8 mm
82%
8.3°
10
Windvlaag: -4.6 km/h
58%
05:00
12°
996.8 hPa 5.1 mm
82%
6.9°
11
Windvlaag: -5.2 km/h
71% warningclass
06:00
12°
997.8 hPa 4.7 mm
81%
7.8°
11
Windvlaag: -5.5 km/h
80%
07:00
11°
999.2 hPa 5.9 mm
82%
9.5°
11
Windvlaag: -5.8 km/h
74%
08:00
12°
1000.6 hPa 5.9 mm
81%
9.5°
10
Windvlaag: -5.5 km/h
85%
09:00
12°
1002.2 hPa 5.7 mm
82%
9.0°
10
Windvlaag: -5.1 km/h
79%
10:00
13°
1004.3 hPa 8.0 mm
95%
9.0°
9
Windvlaag: -4.6 km/h
69%
11:00
13°
1005.5 hPa
43%
8.6°
8
Windvlaag: -3.8 km/h
31%
12:00
14°
1006.0 hPa
35%
7.8°
9
Windvlaag: -2.7 km/h
81%
13:00
14°
1006.9 hPa
26%
9.4°
8
Windvlaag: -2.7 km/h
65%
14:00
14°
1007.8 hPa 9.0 mm
22%
11.1°
7
Windvlaag: -3.2 km/h
83%
15:00
14°
1008.1 hPa 9.3 mm
22%
12.0°
8
Windvlaag: -4.4 km/h
85%
16:00
14°
1009.1 hPa 9.1 mm
22%
12.0°
8
Windvlaag: -4.5 km/h
61%
17:00
14°
1009.6 hPa 8.8 mm
24%
12.2°
9
Windvlaag: -4.5 km/h
54%
18:00
14°
1010.5 hPa 8.5 mm
22%
12.1°
9
Windvlaag: -5.7 km/h
53%
19:00
14°
1011.3 hPa 8.4 mm
71%
12.4°
8
Windvlaag: -5.8 km/h
55%
20:00
14°
1012.0 hPa
71%
12.5°
8
Windvlaag: -5.8 km/h
62%
21:00
14°
1012.6 hPa 8.5 mm
77%
12.6°
8
Windvlaag: -5.2 km/h
65%
22:00
14°
1013.3 hPa
78%
12.9°
8
Windvlaag: -4.9 km/h
62%
23:00
14°
1014.1 hPa
75%
13.0°
7
Windvlaag: -4.5 km/h
67%
 07:07     16:38    Daglengte: 9:31 Zondag 15 Dec
00:00
14°
1014.8 hPa 8.5 mm
80%
12.9°
6
Windvlaag: -4 km/h
64%
01:00
14°
1015.3 hPa 8.5 mm
82%
12.7°
6
Windvlaag: -3.5 km/h
63%
02:00
14°
1015.9 hPa 13.9 mm
80%
12.7°
6
Windvlaag: -7 km/h
56%
03:00
14°
1016.3 hPa
79%
12.5°
5
Windvlaag: -7.1 km/h
55%
04:00
14°
1016.8 hPa 13.9 mm
80%
12.3°
5
Windvlaag: -6.3 km/h
52%
05:00
14°
1017.2 hPa 13.9 mm
78%
12.1°
5
Windvlaag: -6.3 km/h
63%
06:00
14°
1017.8 hPa
76%
12.1°
5
Windvlaag: -6.5 km/h
60%
07:00
14°
1018.4 hPa
76%
12.3°
4
Windvlaag: -3.1 km/h
39%
08:00
15°
1018.7 hPa
33%
12.6°
4
Windvlaag: 6.2 km/h
43%
09:00
15°
1019.0 hPa
31%
12.5°
4
Windvlaag: 4.7 km/h
35%
10:00
16°
1019.3 hPa
22%
12.5°
4
Windvlaag: 3.5 km/h
21%
11:00
17°
1019.4 hPa
21%
12.4°
4
Windvlaag: 3.2 km/h
14%
12:00
17°
1019.4 hPa
21%
12.1°
3
Windvlaag: 3.2 km/h
8%
13:00
18°
1019.4 hPa
21%
11.6°
3
Windvlaag: 0.4 km/h
1%
Temp/Neerslag /Baro Onweer/Dauwpunt
    Temp Baro Neerslag Dauwpunt Wind Bewolking  
 07:05     16:37    Daglengte: 9:32 Vandaag
16:00
11°
1007.3 hPa 6.0 mm 8.6°
5
51%
19:00
11°
1007.8 hPa 3.8 mm 6.6°
7
25%
22:00
11°
1007.7 hPa   6.4°
4
61%
 07:06     16:38    Daglengte: 9:32 Morgen
01:00
10°
1007.1 hPa 5.4 mm 7.8°
4
68%
04:00
10°
1006.3 hPa 3.6 mm 7.5°
4
40%
07:00
11°
1006.0 hPa   7.7°
3
13%
10:00
13°
1005.9 hPa   6.6°
2
32%
13:00
13°
1002.5 hPa   6.4°
2
73%
16:00
12°
1000.7 hPa   8.2°
3
88%
19:00
12°
998.7 hPa 7.2 mm 9.6°
3
74%
22:00
13°
996.7 hPa 10.8 mm 11.0°
4
81% warningclass
 07:07     16:38    Daglengte: 9:31 Zaterdag 14 Dec
01:00
12°
996.0 hPa 15.8 mm 10.0°
9
66%
04:00
12°
995.9 hPa 16.1 mm 8.3°
10
58%
07:00
11°
999.2 hPa 15.8 mm 9.5°
11
74%
10:00
13°
1004.3 hPa 19.7 mm 9.0°
9
69%
13:00
14°
1006.9 hPa   9.4°
8
65%
16:00
14°
1009.1 hPa 27.4 mm 12.0°
8
61%
19:00
14°
1011.3 hPa 25.7 mm 12.4°
8
55%
22:00
14°
1013.3 hPa 8.5 mm 12.9°
8
62%
 07:07     16:38    Daglengte: 9:31 Zondag 15 Dec
01:00
14°
1015.3 hPa 17.0 mm 12.7°
6
63%
04:00
14°
1016.8 hPa 27.8 mm 12.3°
5
52%
07:00
14°
1018.4 hPa 13.9 mm 12.3°
4
39%
10:00
16°
1019.3 hPa   12.5°
4
21%
13:00
18°
1019.4 hPa   11.6°
3
1%
16:00
16°
1020.9 hPa 22.5 mm 9.2°
2
31%
19:00
16°
1021.7 hPa 22.5 mm 7.6°
2
46%
22:00
15°
1022.2 hPa 22.5 mm 7.3°
1
23%
 07:08     16:38    Daglengte: 9:30 Maandag 16 Dec
01:00
15°
1022.6 hPa 22.5 mm 7.0°
1
0%
04:00
15°
1022.8 hPa 22.5 mm 8.1°
2
24%
07:00
15°
1023.1 hPa 22.5 mm 9.5°
3
48%
10:00
17°
1023.3 hPa 22.5 mm 9.9°
4
24%
13:00
18°
1023.2 hPa 22.5 mm 9.7°
5
0%
16:00
17°
1023.4 hPa 22.5 mm 11.0°
5
28%
19:00
17°
1023.7 hPa 22.5 mm 12.2°
5
57%
22:00
16°
1023.7 hPa 22.5 mm 12.0°
5
33%
 07:09     16:39    Daglengte: 9:30 Dinsdag 17 Dec
01:00
16°
1023.6 hPa 22.5 mm 11.7°
5
9%
04:00
15°
1023.6 hPa 22.5 mm 12.2°
5
31%
07:00
15°
1023.7 hPa 22.6 mm 12.6°
5
53%
10:00
16°
1023.1 hPa 22.6 mm 13.0°
7
67%
13:00
16°
1022.2 hPa 22.6 mm 13.5°
9
80%
16:00
16°
1022.2 hPa 22.7 mm 12.9°
8
54%
19:00
16°
1022.3 hPa 22.7 mm 12.4°
7
29%
22:00
15°
1022.4 hPa 22.8 mm 12.9°
7
60%
 07:09     16:39    Daglengte: 9:30 Woensdag 18 Dec
01:00
15°
1022.4 hPa 22.9 mm 13.1°
7
91%
04:00
15°
1021.7 hPa 22.9 mm 13.9°
9
91%
07:00
16°
1021.0 hPa 23.1 mm 14.7°
10
92%
10:00
16°
1020.8 hPa 23.3 mm 14.3°
9
85%
13:00
17°
1020.3 hPa 23.5 mm 13.9°
8
79%
16:00
16°
1020.0 hPa 23.7 mm 13.9°
9
75%
19:00
16°
1019.7 hPa 23.8 mm 13.8°
9
70%
22:00
15°
1019.5 hPa 24.0 mm 13.9°
9
77%
 07:10     16:40    Daglengte: 9:30 Donderdag 19 Dec
01:00
15°
1019.1 hPa 24.1 mm 14.0°
9
84%
04:00
15°
1018.5 hPa 24.3 mm 13.7°
9
88%
07:00
14°
1018.0 hPa 24.5 mm 13.4°
8
92%
10:00
15°
1017.7 hPa 24.8 mm 12.7°
8
55%
13:00
15°
1017.2 hPa 49.8 mm 11.9°
7
19%
19:00
14°
1018.3 hPa 51.4 mm 11.5°
5
9%
 07:10     16:40    Daglengte: 9:30 Vrijdag 20 Dec
01:00
14°
1018.2 hPa 57.0 mm 8.3°
3
29%
07:00
14°
1017.9 hPa 79.8 mm 10.1°
3
11%
13:00
17°
1015.9 hPa 84.4 mm 10.3°
4
32%
19:00
15°
1015.2 hPa 84.8 mm 11.8°
8
92%
 07:11     16:40    Daglengte: 9:29 Zaterdag 21 Dec
01:00
14°
1013.4 hPa 85.0 mm 9.9°
7
91%
07:00
14°
1010.5 hPa 85.0 mm 11.3°
7
92%
13:00
15°
1008.1 hPa 85.0 mm 12.0°
9
92%
19:00
15°
1005.3 hPa 85.2 mm 12.4°
10
92%
 07:11     16:41    Daglengte: 9:30 Zondag 22 Dec
01:00
13°
1010.7 hPa 93.7 mm 10.4°
3
1%
07:00
14°
1014.9 hPa 0.3 mm 11.3°
2
50%
13:00
17°
1014.0 hPa 0.7 mm 11.8°
2
62%
19:00
14°
1014.4 hPa 0.9 mm 11.3°
1
58%
 07:12     16:42    Daglengte: 9:30 Maandag 23 Dec
01:00
14°
1014.5 hPa 0.7 mm 10.7°
1
53%
07:00
13°
1014.3 hPa 0.7 mm 10.0°
1
53%
13:00
16°
1014.0 hPa 0.5 mm 10.0°
2
47%
19:00
14°
1014.8 hPa 0.5 mm 10.0°
2
46%
 07:12     16:42    Daglengte: 9:30 Dinsdag 24 Dec
01:00
13°
1015.2 hPa 0.5 mm 9.5°
2
41%
07:00
12°
1015.3 hPa 0.6 mm 9.2°
2
35%
13:00
16°
1015.3 hPa 0.2 mm 9.5°
2
30%
19:00
13°
1016.0 hPa 0.1 mm 9.3°
2
34%
 07:13     16:43    Daglengte: 9:30 Woensdag 25 Dec
01:00
12°
1016.1 hPa   9.0°
2
32%
07:00
12°
1015.9 hPa 0.1 mm 9.1°
1
38%
13:00
16°
1014.7 hPa 0.2 mm 10.3°
2
45%
19:00
14°
1014.3 hPa 0.3 mm 10.4°
2
47%
 07:13     16:43    Daglengte: 9:30 Donderdag 26 Dec
01:00
13°
1013.9 hPa 0.1 mm 10.1°
2
46%
07:00
12°
1013.0 hPa 0.2 mm 9.3°
1
48%
13:00
16°
1012.5 hPa 0.3 mm 9.7°
1
47%
19:00
13°
1013.0 hPa 0.4 mm 9.1°
0
52%
 07:13     16:44    Daglengte: 9:31 Vrijdag 27 Dec
01:00
12°
1012.9 hPa 0.3 mm 8.7°
1
48%
07:00
12°
1012.4 hPa 0.8 mm 8.1°
1
46%
13:00
15°
1012.1 hPa 0.7 mm 8.2°
1
40%
  CAPE Lifted Index Hail Supercell Tornado SRH 3km CL BTM PRES CL TOP PRES Swiss DWD icon SMHI TS
 07:05     16:37    Daglengte: 9:32 Vandaag
14:00 140 J/kg 2.2 K 0 % 0 % 0 % 0 m²/s² 0 0 5.77 80
15:00 190 J/kg 2.3 K 0 % 0 % 0 % 0 m²/s² 0 0 7.28 2
16:00 218 J/kg 3.0 K 0 % 0 % 0 % 0 m²/s² 0 0 6.3 2
17:00 138 J/kg 4.5 K 0 % 0 % 0 % 0 m²/s² 0 0 10.26 0
18:00 114 J/kg 5.8 K 0 % 0 % 0 % 0 m²/s² 0 0 12.31 1
19:00 77 J/kg 5.5 K 0 % 0 % 0 % 0 m²/s² 0 0 11.8 2
20:00 90 J/kg 4.0 K 0 % 0 % 0 % 0 m²/s² 0 0 10.33 2
21:00 101 J/kg 2.8 K 0 % 0 % 0 % 0 m²/s² 0 0 8.92 3
22:00 73 J/kg 3.1 K 0 % 0 % 0 % 0 m²/s² 0 0 8.14 2
23:00 95 J/kg 1.8 K 0 % 0 % 0 % 0 m²/s² 0 0 5.79 3
 07:06     16:38    Daglengte: 9:32 Morgen
00:00 124 J/kg 1.2 K 0 % 0 % 0 % 0 m²/s² 0 0 4.2 2
01:00 121 J/kg 0.7 K 0 % 0 % 0 % 0 m²/s² 0 0 2.95 3
02:00 140 J/kg 0.2 K 0 % 0 % 0 % 0 m²/s² 0 0 2.3 3
03:00 145 J/kg 0.3 K 0 % 0 % 0 % 0 m²/s² 0 0 2.34 3
04:00 145 J/kg -0.1 K 0 % 0 % 0 % 0 m²/s² 0 0 2.21 1
05:00 135 J/kg -0.3 K 0 % 0 % 0 % 0 m²/s² 0 0 2.16 1
06:00 202 J/kg -0.8 K 0 % 0 % 0 % 0 m²/s² 0 0 1.51 0
07:00 156 J/kg -0.2 K 0 % 0 % 0 % 0 m²/s² 0 0 1.42 0
08:00 11 J/kg 1.2 K 0 % 0 % 0 % 0 m²/s² 0 0 2.13 0
09:00 1 J/kg 1.8 K 0 % 0 % 0 % 0 m²/s² 0 0 3.12 3
10:00 2 J/kg 2.0 K 0 % 0 % 0 % 0 m²/s² 0 0 3.11 2
11:00 21 J/kg 1.9 K 0 % 0 % 0 % 0 m²/s² 0 0 2.26 3
12:00 0 J/kg 1.9 K 0 % 0 % 0 % 0 m²/s² 0 0 2.32 3
13:00 23 J/kg 1.3 K 0 % 0 % 0 % 0 m²/s² 0 0 1.63 80
14:00 37 J/kg 0.7 K 0 % 0 % 0 % 0 m²/s² 0 0 1.15 80
15:00 36 J/kg 0.4 K 0 % 0 % 0 % 0 m²/s² 0 0 0.94 3
16:00 0 J/kg 0.0 K 0 % 0 % 0 % 0 m²/s² 0 0 0.12 3
17:00 0 J/kg -1.0 K 0 % 0 % 0 % 0 m²/s² 0 0 -0.85 3
18:00 69 J/kg -1.4 K 0 % 0 % 0 % 0 m²/s² 0 0 -1.25 3
19:00 171 J/kg -2.2 K 0 % 0 % 0 % 0 m²/s² 0 0 -0.28 3
20:00 352 J/kg -2.8 K 0 % 0 % 0 % 0 m²/s² 0 0 -2.59 61
21:00 609 J/kg -3.0 K 0 % 0 % 0 % 0 m²/s² 0 0 -3 80
22:00 670 J/kg -3.5 K 0 % 0 % 0 % 0 m²/s² 0 0 -3.5 80
23:00 174 J/kg 0.8 K 0 % 0 % 0 % 0 m²/s² 0 0 0.92 80
 07:07     16:38    Daglengte: 9:31 Zaterdag 14 Dec
00:00 160 J/kg 1.2 K 0 % 0 % 0 % 0 m²/s² 0 0 1.89 61
01:00 427 J/kg -0.7 K 0 % 0 % 0 % 0 m²/s² 0 0 3.62 80
02:00 346 J/kg 0.9 K 0 % 0 % 0 % 0 m²/s² 0 0 2.97 80
03:00 404 J/kg 0.6 K 0 % 0 % 0 % 0 m²/s² 0 0 2.91 80
04:00 411 J/kg -0.3 K 0 % 0 % 0 % 0 m²/s² 0 0 3 80
05:00 361 J/kg -0.3 K 0 % 0 % 0 % 0 m²/s² 0 0 3.27 95
06:00 289 J/kg -1.3 K 0 % 0 % 0 % 0 m²/s² 0 0 -1 80
07:00 493 J/kg -2.3 K 0 % 0 % 0 % 0 m²/s² 0 0 -2 80
08:00 397 J/kg -0.5 K 0 % 0 % 0 % 0 m²/s² 0 0 -0.2 2
09:00 427 J/kg 0.3 K 0 % 0 % 0 % 0 m²/s² 0 0 1.71 80
10:00 380 J/kg 2.0 K 0 % 0 % 0 % 0 m²/s² 0 0 4.97 1
11:00 320 J/kg 3.3 K 0 % 0 % 0 % 0 m²/s² 0 0 6.15 0
12:00 264 J/kg 4.6 K 0 % 0 % 0 % 0 m²/s² 0 0 7.69 0
13:00 131 J/kg 6.8 K 0 % 0 % 0 % 0 m²/s² 0 0 10.82 3
14:00 177 J/kg 6.4 K 0 % 0 % 0 % 0 m²/s² 0 0 10.45 2
15:00 195 J/kg 5.6 K 0 % 0 % 0 % 0 m²/s² 0 0 9.29 0
16:00 155 J/kg 5.7 K 0 % 0 % 0 % 0 m²/s² 0 0 9.54 0
17:00 142 J/kg 5.7 K 0 % 0 % 0 % 0 m²/s² 0 0 9.87 1
18:00 149 J/kg 5.2 K 0 % 0 % 0 % 0 m²/s² 0 0 9.97 2
19:00 147 J/kg 5.0 K 0 % 0 % 0 % 0 m²/s² 0 0 10.19 2
20:00 108 J/kg 5.4 K 0 % 0 % 0 % 0 m²/s² 0 0 11.07 2
21:00 63 J/kg 5.7 K 0 % 0 % 0 % 0 m²/s² 0 0 12.12 2
22:00 48 J/kg 5.8 K 0 % 0 % 0 % 0 m²/s² 0 0 12.94 80
23:00 29 J/kg 6.2 K 0 % 0 % 0 % 0 m²/s² 0 0 13.61 2
 07:07     16:38    Daglengte: 9:31 Zondag 15 Dec
00:00 15 J/kg 6.5 K 0 % 0 % 0 % 0 m²/s² 0 0 13.97 80
01:00 1 J/kg 6.8 K 0 % 0 % 0 % 0 m²/s² 0 0 14.03 80
02:00 0 J/kg 7.1 K 0 % 0 % 0 % 0 m²/s² 0 0 13.67 2
03:00 0 J/kg 7.4 K 0 % 0 % 0 % 0 m²/s² 0 0 13.61 2
04:00 0 J/kg 7.7 K 0 % 0 % 0 % 0 m²/s² 0 0 13.55 2
05:00 0 J/kg 7.7 K 0 % 0 % 0 % 0 m²/s² 0 0 13.22 2
06:00 0 J/kg 7.0 K 0 % 0 % 0 % 0 m²/s² 0 0 12.25 2
07:00 0 J/kg 5.2 K 0 % 0 % 0 % 0 m²/s² 0 0 10.45 3
08:00 3 J/kg 4.2 K 0 % 0 % 0 % 0 m²/s² 0 0 9.72 2
09:00 11 J/kg 4.2 K 0 % 0 % 0 % 0 m²/s² 0 0 10.2 2
10:00 11 J/kg 4.1 K 0 % 0 % 0 % 0 m²/s² 0 0 10.28 2
11:00 11 J/kg 3.8 K 0 % 0 % 0 % 0 m²/s² 0 0 10.79 0
12:00 3 J/kg 3.9 K 0 % 0 % 0 % 0 m²/s² 0 0 11.94 0
13:00 1 J/kg 4.1 K 0 % 0 % 0 % 0 m²/s² 0 0 11.84 1
Temp Baro Wind Neerslag
  EWN Forecast EWN WRFDA DWD ICON FMI HIRLAM MET Norway GFS
 07:05     16:37    Daglengte: 9:32 Vandaag
16:00 10.7° 1007.3 hPa 5.5 m/s 6.0 mm 11.9° 1006.6 hPa 9.0 m/s 23.9 mm 9.9° 1009.1 hPa 5.2 m/s 1.6 mm 12.0° 1006.2 hPa 5.6 m/s 0.0 mm 10.7° 1007.3 hPa 5.2 m/s 12.0° 1007.4 hPa 8.8 m/s
19:00 11.0° 1007.8 hPa 6.7 m/s 3.8 mm 11.8° 1007.3 hPa 7.3 m/s 25.8 mm 10.5° 1008.9 hPa 6.5 m/s 0.2 mm 12.2° 1006.7 hPa 7.4 m/s 0.0 mm 11.0° 1007.8 hPa 4.8 m/s 11.7° 1008.1 hPa 6.5 m/s
22:00 11.0° 1007.7 hPa 3.6 m/s 0.0 mm 11.9° 1006.7 hPa 8.3 m/s 25.9 mm 9.3° 1008.8 hPa 2.5 m/s 0.5 mm 12.2° 1006.9 hPa 6.4 m/s 0.0 mm 11.3° 1007.7 hPa 3.0 m/s 12.5° 1007.5 hPa 8.1 m/s
 07:06     16:38    Daglengte: 9:32 Morgen
01:00 10.4° 1007.1 hPa 4.1 m/s 5.4 mm 11.7° 1006.4 hPa 7.2 m/s 26.5 mm 9.4° 1008.6 hPa 2.1 m/s 0.7 mm 12.0° 1006.4 hPa 6.7 m/s 0.0 mm 10.4° 1007.0 hPa 3.4 m/s 12.4° 1006.6 hPa 8.5 m/s
04:00 10.5° 1006.3 hPa 4.4 m/s 3.6 mm 11.7° 1005.9 hPa 6.7 m/s 27.9 mm 9.2° 1007.2 hPa 2.1 m/s 0.2 mm 11.9° 1005.9 hPa 7.6 m/s 0.0 mm 10.5° 1006.2 hPa 3.7 m/s 11.8° 1005.6 hPa 5.7 m/s
07:00 10.5° 1006.0 hPa 3.5 m/s 0.0 mm 11.4° 1005.7 hPa 3.7 m/s 28.4 mm 9.3° 1007.1 hPa 2.2 m/s 0.0 mm 12.3° 1005.9 hPa 7.1 m/s 0.0 mm 10.7° 1005.9 hPa 2.7 m/s 11.1° 1005.9 hPa 2.0 m/s
10:00 12.6° 1005.9 hPa 1.9 m/s 0.0 mm 13.1° 1004.8 hPa 7.7 m/s 28.6 mm 12.8° 1006.4 hPa 1.4 m/s 0.0 mm 13.0° 1005.6 hPa 1.9 m/s 0.0 mm 12.6° 1005.9 hPa 0.7 m/s 13.5° 1005.1 hPa 2.3 m/s
13:00 13.2° 1002.5 hPa 1.9 m/s 0.0 mm 11.8° 1002.0 hPa 8.6 m/s 33.2 mm 13.7° 1002.0 hPa 2.8 m/s 0.1 mm 14.1° 1003.4 hPa 2.1 m/s 0.0 mm 13.2° 1002.8 hPa 0.7 m/s 14.4° 1002.5 hPa 2.8 m/s
16:00 12.4° 1000.7 hPa 3.2 m/s 0.0 mm 12.5° 998.2 hPa 8.2 m/s 39.5 mm 12.7° 1000.1 hPa 2.6 m/s 0.8 mm 13.9° 1001.4 hPa 5.2 m/s 0.0 mm 12.1° 1001.3 hPa 2.9 m/s 12.2° 999.1 hPa 3.4 m/s
19:00 12.4° 998.7 hPa 2.9 m/s 7.2 mm 13.4° 995.9 hPa 8.1 m/s 49.1 mm 12.2° 998.5 hPa 2.2 m/s 0.3 mm 14.1° 999.5 hPa 6.5 m/s 0.0 mm 12.3° 999.0 hPa 2.1 m/s 13.0° 996.6 hPa 5.3 m/s
22:00 12.7° 996.7 hPa 3.8 m/s 10.8 mm 13.9° 993.6 hPa 9.3 m/s 56.1 mm 13.4° 997.3 hPa 4.6 m/s 2.0 mm 14.5° 997.8 hPa 4.5 m/s 0.0 mm 12.0° 996.6 hPa 1.0 m/s 14.2° 993.9 hPa 10.5 m/s
 07:07     16:38    Daglengte: 9:31 Zaterdag 14 Dec
01:00 11.8° 996.0 hPa 9.2 m/s 15.8 mm 11.3° 994.7 hPa 10.6 m/s 69.4 mm 10.5° 996.3 hPa 8.9 m/s 4.9 mm 15.2° 996.2 hPa 11.7 m/s 0.0 mm 11.9° 996.1 hPa 8.7 m/s 12.4° 992.9 hPa 15.3 m/s
04:00 11.8° 995.9 hPa 10.2 m/s 16.1 mm 11.4° 995.0 hPa 14.7 m/s 78.6 mm 9.3° 996.3 hPa 9.2 m/s 6.4 mm 14.3° 995.5 hPa 12.8 m/s 0.0 mm 12.3° 996.4 hPa 8.4 m/s 11.7° 993.1 hPa 16.2 m/s
07:00 11.2° 999.2 hPa 10.6 m/s 15.8 mm 10.4° 997.8 hPa 13.7 m/s 89.8 mm 10.6° 999.2 hPa 8.3 m/s 2.0 mm 14.0° 998.0 hPa 11.3 m/s 0.0 mm 11.0° 1000.4 hPa 10.0 m/s 12.5° 995.7 hPa 15.5 m/s
10:00 12.7° 1004.3 hPa 9.0 m/s 19.7 mm 12.2° 1001.0 hPa 14.4 m/s 109.9 mm 12.9° 1002.5 hPa 11.0 m/s 0.6 mm 12.9° 1005.2 hPa 7.1 m/s 12.5° 1000.0 hPa 14.7 m/s
13:00 13.9° 1006.9 hPa 7.6 m/s 0.0 mm 13.6° 1003.3 hPa 14.3 m/s 122.1 mm 14.1° 1005.6 hPa 9.8 m/s 0.0 mm 14.0° 1007.3 hPa 6.6 m/s 13.1° 1002.9 hPa 12.3 m/s
16:00 13.6° 1009.1 hPa 8.3 m/s 27.4 mm 13.6° 1006.7 hPa 11.9 m/s 124.1 mm 13.2° 1008.5 hPa 7.2 m/s 0.0 mm 14.4° 1009.4 hPa 8.3 m/s 13.3° 1006.3 hPa 14.9 m/s
19:00 14.1° 1011.3 hPa 8.5 m/s 25.7 mm 14.1° 1009.9 hPa 9.7 m/s 124.2 mm 13.2° 1011.3 hPa 5.5 m/s 0.0 mm 15.2° 1011.3 hPa 8.6 m/s 13.4° 1010.7 hPa 12.0 m/s
22:00 14.3° 1013.3 hPa 8.3 m/s 8.5 mm 14.3° 1011.8 hPa 8.8 m/s 124.4 mm 14.0° 1013.9 hPa 5.7 m/s 0.7 mm 15.1° 1013.2 hPa 8.9 m/s 13.4° 1013.6 hPa 7.1 m/s
 07:07     16:38    Daglengte: 9:31 Zondag 15 Dec
01:00 14.1° 1015.3 hPa 6.3 m/s 17.0 mm 14.0° 1012.6 hPa 7.8 m/s 124.4 mm 14.0° 1015.5 hPa 5.0 m/s 1.0 mm 15.0° 1015.4 hPa 6.4 m/s 12.9° 1015.2 hPa 4.7 m/s
04:00 13.8° 1016.8 hPa 5.1 m/s 27.8 mm 11.6° 1014.3 hPa 3.0 m/s 124.4 mm 13.9° 1017.3 hPa 4.4 m/s 0.3 mm 14.8° 1017.0 hPa 6.1 m/s 12.6° 1016.5 hPa 4.0 m/s
07:00 13.9° 1018.4 hPa 4.5 m/s 13.9 mm 11.0° 1016.1 hPa 2.2 m/s 124.4 mm 14.3° 1018.9 hPa 3.9 m/s 0.2 mm 14.5° 1018.6 hPa 5.8 m/s 13.6° 1018.4 hPa 4.2 m/s
10:00 16.1° 1019.3 hPa 3.8 m/s 0.0 mm 15.4° 1018.0 hPa 2.5 m/s 124.5 mm 15.9° 1020.8 hPa 3.0 m/s 0.0 mm 16.4° 1019.2 hPa 4.7 m/s 15.6° 1020.1 hPa 2.9 m/s
13:00 17.6° 1019.4 hPa 3.1 m/s 0.0 mm 16.1° 1017.9 hPa 3.0 m/s 124.7 mm 17.3° 1019.5 hPa 1.6 m/s 0.0 mm 18.2° 1019.7 hPa 3.6 m/s 16.6° 1019.5 hPa 1.9 m/s
16:00 16.5° 1020.9 hPa 2.4 m/s 22.5 mm 16.6° 1021.0 hPa 2.4 m/s 15.2° 1020.0 hPa 1.9 m/s 22.5 mm
19:00 15.6° 1021.7 hPa 1.8 m/s 22.5 mm 15.8° 1021.7 hPa 1.8 m/s 13.6° 1021.2 hPa 1.6 m/s 22.5 mm
22:00 15.2° 1022.2 hPa 1.3 m/s 22.5 mm 15.4° 1022.2 hPa 1.3 m/s 13.4° 1022.2 hPa 1.4 m/s 22.5 mm
 07:08     16:38    Daglengte: 9:30 Maandag 16 Dec
01:00 14.9° 1022.6 hPa 0.8 m/s 22.5 mm 15.0° 1022.6 hPa 0.8 m/s 13.3° 1022.2 hPa 0.6 m/s 22.5 mm
04:00 14.9° 1022.8 hPa 2.0 m/s 22.5 mm 15.1° 1022.9 hPa 2.1 m/s 13.2° 1022.1 hPa 0.9 m/s 22.5 mm
07:00 14.9° 1023.1 hPa 3.2 m/s 22.5 mm 15.1° 1023.2 hPa 3.4 m/s 13.1° 1022.6 hPa 1.6 m/s 22.5 mm
10:00 16.6° 1023.3 hPa 4.2 m/s 22.5 mm 16.7° 1023.2 hPa 4.3 m/s 15.8° 1023.3 hPa 2.8 m/s 22.5 mm
13:00 18.2° 1023.2 hPa 5.2 m/s 22.5 mm 18.3° 1023.3 hPa 5.3 m/s 16.7° 1021.6 hPa 3.7 m/s 22.5 mm
16:00 17.5° 1023.4 hPa 5.0 m/s 22.5 mm 17.6° 1023.6 hPa 5.1 m/s 15.4° 1021.2 hPa 3.9 m/s 22.5 mm
19:00 16.8° 1023.7 hPa 4.9 m/s 22.5 mm 17.0° 1023.9 hPa 4.9 m/s 14.5° 1021.6 hPa 4.5 m/s 22.5 mm
22:00 16.3° 1023.7 hPa 4.7 m/s 22.5 mm 16.4° 1023.8 hPa 4.7 m/s 15.0° 1021.8 hPa 4.9 m/s 22.5 mm
 07:09     16:39    Daglengte: 9:30 Dinsdag 17 Dec
01:00 15.7° 1023.6 hPa 4.6 m/s 22.5 mm 15.8° 1023.8 hPa 4.5 m/s 14.7° 1020.9 hPa 5.5 m/s 22.5 mm
04:00 15.2° 1023.6 hPa 5.0 m/s 22.5 mm 15.2° 1023.8 hPa 4.9 m/s 14.5° 1020.7 hPa 5.6 m/s 22.5 mm
07:00 14.7° 1023.7 hPa 5.3 m/s 22.6 mm 14.7° 1023.9 hPa 5.3 m/s 14.2° 1021.0 hPa 5.6 m/s 22.6 mm
10:00 15.6° 1023.1 hPa 7.0 m/s 22.6 mm 15.6° 1023.1 hPa 7.2 m/s 15.2° 1022.0 hPa 5.5 m/s 22.6 mm
13:00 16.5° 1022.2 hPa 8.7 m/s 22.6 mm 16.5° 1022.4 hPa 9.0 m/s 16.0° 1020.4 hPa 5.5 m/s 22.6 mm
16:00 16.0° 1022.2 hPa 7.8 m/s 22.7 mm 16.1° 1022.4 hPa 8.1 m/s 15.3° 1020.3 hPa 5.1 m/s 22.7 mm
19:00 15.5° 1022.3 hPa 6.9 m/s 22.7 mm 15.6° 1022.4 hPa 7.1 m/s 14.6° 1021.2 hPa 4.3 m/s 22.7 mm
22:00 15.3° 1022.4 hPa 7.2 m/s 22.8 mm 15.3° 1022.4 hPa 7.4 m/s 14.9° 1022.2 hPa 4.0 m/s 22.8 mm
 07:09     16:39    Daglengte: 9:30 Woensdag 18 Dec
01:00 15.0° 1022.4 hPa 7.5 m/s 22.9 mm 15.1° 1022.4 hPa 7.8 m/s 14.5° 1022.2 hPa 3.9 m/s 22.9 mm
04:00 15.4° 1021.7 hPa 8.6 m/s 22.9 mm 15.4° 1021.6 hPa 9.1 m/s 14.9° 1021.8 hPa 3.9 m/s 22.9 mm
07:00 15.7° 1021.0 hPa 9.8 m/s 23.1 mm 15.7° 1020.9 hPa 10.3 m/s 15.3° 1022.1 hPa 3.9 m/s 23.1 mm
10:00 16.2° 1020.8 hPa 9.1 m/s 23.3 mm 16.2° 1020.5 hPa 9.5 m/s 16.4° 1023.5 hPa 4.6 m/s 23.3 mm
13:00 16.7° 1020.3 hPa 8.3 m/s 23.5 mm 16.7° 1020.1 hPa 8.7 m/s 16.8° 1022.6 hPa 4.2 m/s 23.5 mm
16:00 16.2° 1020.0 hPa 8.7 m/s 23.7 mm 16.2° 1019.8 hPa 9.1 m/s 16.0° 1022.2 hPa 4.1 m/s 23.7 mm
19:00 15.6° 1019.7 hPa 9.2 m/s 23.8 mm 15.7° 1019.4 hPa 9.6 m/s 14.3° 1022.8 hPa 4.5 m/s 23.8 mm
22:00 15.3° 1019.5 hPa 8.9 m/s 24.0 mm 15.3° 1019.0 hPa 9.3 m/s 14.5° 1024.0 hPa 4.5 m/s 24.0 mm
 07:10     16:40    Daglengte: 9:30 Donderdag 19 Dec
01:00 15.0° 1019.1 hPa 8.7 m/s 24.1 mm 15.0° 1018.7 hPa 9.1 m/s 14.4° 1024.0 hPa 4.2 m/s 24.1 mm
04:00 14.7° 1018.5 hPa 8.5 m/s 24.3 mm 14.7° 1018.2 hPa 8.9 m/s 14.3° 1022.8 hPa 4.7 m/s 24.3 mm
07:00 14.4° 1018.0 hPa 8.4 m/s 24.5 mm 14.4° 1017.6 hPa 8.7 m/s 14.2° 1022.5 hPa 4.9 m/s 24.5 mm
10:00 14.8° 1017.7 hPa 7.8 m/s 24.8 mm 14.8° 1017.2 hPa 8.0 m/s 15.7° 1023.0 hPa 5.8 m/s 24.8 mm
13:00 15.2° 1017.2 hPa 7.2 m/s 25.1 mm 15.1° 1016.8 hPa 7.3 m/s 16.1° 1021.3 hPa 6.5 m/s 25.1 mm
19:00 14.2° 1018.3 hPa 4.7 m/s 26.0 mm 14.2° 1018.2 hPa 4.5 m/s 14.8° 1019.8 hPa 6.4 m/s 26.0 mm
 07:10     16:40    Daglengte: 9:30 Vrijdag 20 Dec
01:00 13.5° 1018.2 hPa 2.8 m/s 30.1 mm 13.4° 1018.2 hPa 2.4 m/s 14.8° 1018.1 hPa 7.4 m/s 30.1 mm
07:00 13.7° 1017.9 hPa 2.9 m/s 41.3 mm 13.7° 1018.1 hPa 2.7 m/s 13.2° 1015.7 hPa 5.5 m/s 41.3 mm
13:00 16.5° 1015.9 hPa 4.2 m/s 42.2 mm 16.7° 1016.0 hPa 4.0 m/s 14.6° 1014.9 hPa 6.0 m/s 42.2 mm
19:00 14.7° 1015.2 hPa 7.6 m/s 42.5 mm 14.8° 1015.2 hPa 7.8 m/s 13.4° 1015.0 hPa 5.0 m/s 42.5 mm
 07:11     16:40    Daglengte: 9:29 Zaterdag 21 Dec
01:00 13.8° 1013.4 hPa 6.9 m/s 42.5 mm 13.9° 1013.3 hPa 7.1 m/s 12.8° 1014.7 hPa 4.3 m/s 42.5 mm
07:00 13.7° 1010.5 hPa 7.3 m/s 42.5 mm 13.8° 1010.2 hPa 7.7 m/s 12.3° 1013.3 hPa 3.1 m/s 42.5 mm
13:00 15.2° 1008.1 hPa 8.8 m/s 42.5 mm 15.2° 1007.8 hPa 9.3 m/s 14.8° 1011.2 hPa 3.8 m/s 42.5 mm
19:00 14.8° 1005.3 hPa 9.7 m/s 42.7 mm 14.9° 1004.8 hPa 10.2 m/s 13.3° 1010.8 hPa 3.9 m/s 42.7 mm
 07:11     16:41    Daglengte: 9:30 Zondag 22 Dec
01:00 12.8° 1010.7 hPa 3.5 m/s 47.4 mm 12.8° 1010.7 hPa 3.5 m/s 47.4 mm
07:00 13.6° 1014.9 hPa 2.1 m/s 0.3 mm
13:00 16.6° 1014.0 hPa 2.1 m/s 0.7 mm
19:00 14.2° 1014.4 hPa 0.5 m/s 0.9 mm
 07:12     16:42    Daglengte: 9:30 Maandag 23 Dec
01:00 13.5° 1014.5 hPa 0.7 m/s 0.7 mm
07:00 13.0° 1014.3 hPa 1.1 m/s 0.7 mm
13:00 15.8° 1014.0 hPa 1.7 m/s 0.5 mm
19:00 13.5° 1014.8 hPa 1.8 m/s 0.5 mm
 07:12     16:42    Daglengte: 9:30 Dinsdag 24 Dec
01:00 12.6° 1015.2 hPa 2.2 m/s 0.5 mm
07:00 12.2° 1015.3 hPa 2.3 m/s 0.6 mm
13:00 15.7° 1015.3 hPa 2.5 m/s 0.2 mm
19:00 13.2° 1016.0 hPa 1.9 m/s 0.1 mm
 07:13     16:43    Daglengte: 9:30 Woensdag 25 Dec
01:00 12.3° 1016.1 hPa 1.5 m/s 0.0 mm
07:00 12.1° 1015.9 hPa 1.1 m/s 0.1 mm
13:00 15.9° 1014.7 hPa 1.8 m/s 0.2 mm
19:00 13.6° 1014.3 hPa 1.6 m/s 0.3 mm
 07:13     16:43    Daglengte: 9:30 Donderdag 26 Dec
01:00 13.0° 1013.9 hPa 1.8 m/s 0.1 mm
07:00 12.5° 1013.0 hPa 1.2 m/s 0.2 mm
13:00 15.7° 1012.5 hPa 1.0 m/s 0.3 mm
19:00 13.0° 1013.0 hPa 0.3 m/s 0.4 mm
 07:13     16:44    Daglengte: 9:31 Vrijdag 27 Dec
01:00 12.2° 1012.9 hPa 0.9 m/s 0.3 mm
07:00 11.6° 1012.4 hPa 0.7 m/s 0.8 mm
13:00 14.6° 1012.1 hPa 1.3 m/s 0.7 mm
FMI Hirlam - 7.5 km EWN WRFDA - 12 km DWD ICON - 7 km GFS - 25 km Basiskaart






























































Updatetijd (Europe/Amsterdam) Resolutie Lengte Stap
FMI Hirlam 12:15, 18:15, 00:15, 06:15 7.5 km 49h 1h
EWN WRFDA 08:30, 14:30, 20:30, 02:30 12 km 73h 1h
DWD ICON 10:45, 16:45, 22:45, 04:45 7 km 75h 1h
GFS 08:30, 14:30, 20:30, 02:30 25 km 237h 3h
30+ mm
25-30 mm
20-25 mm
15-20 mm
10-15 mm
6-10 mm
4-6 mm
2-4 mm
1-2 mm
0.5-1 mm
0.2-0.5 mm
0.1-0.2 mm
30+ mm
25-30 mm
20-25 mm
15-20 mm
10-15 mm
6-10 mm
4-6 mm
2-4 mm
1-2 mm
0.5-1 mm
0.2-0.5 mm
0.1-0.2 mm
Sneeuwval
Natte sneeuw
Hagel
Vorst
30+ mm
25-30 mm
20-25 mm
15-20 mm
10-15 mm
6-10 mm
4-6 mm
2-4 mm
1-2 mm
0.5-1 mm
0.2-0.5 mm
0.1-0.2 mm
Sneeuwval
Natte sneeuw
Hagel
Vorst
Onweer
50 mm
40 mm
30 mm
26 mm
22 mm
18 mm
14 mm
10 mm
9 mm
8 mm
7 mm
6 mm
5 mm
4.5 mm
4 mm
3.5 mm
3 mm
2.5 mm
2 mm
1.5 mm
1 mm
0.8 mm
0.6 mm
0.4 mm
0.2 mm
0.05 mm
35°
30°
25°
20°
15°
10°
-5°
-10°
-15°
-20°
-25°
-30°
-35°
120> km/h
105 km/h
90 km/h
75 km/h
60 km/h
50 km/h
40 km/h
30 km/h
20 km/h
10 km/h
0 km/h
2600 J/kg
2400 J/kg
2200 J/kg
2000 J/kg
1800 J/kg
1600 J/kg
1400 J/kg
1200 J/kg
1000 J/kg
800 J/kg
600 J/kg
400 J/kg
200 J/kg
70 dBZ
65 dBZ
60 dBZ
55 dBZ
50 dBZ
45 dBZ
40 dBZ
35 dBZ
30 dBZ
25 dBZ
20 dBZ
15 dBZ
10 dBZ
5 dBZ
-1 K
-2 K
-3 K
-4 K
-5 K
-6 K
-7 K
-8 K
-9 K
950 m²/s²
900 m²/s²
850 m²/s²
800 m²/s²
750 m²/s²
700 m²/s²
650 m²/s²
600 m²/s²
550 m²/s²
500 m²/s²
450 m²/s²
400 m²/s²
350 m²/s²
300 m²/s²
250 m²/s²
200 m²/s²
150 m²/s²
100 m²/s²
46 m/s
44 m/s
42 m/s
40 m/s
38 m/s
36 m/s
34 m/s
32 m/s
30 m/s
28 m/s
26 m/s
24 m/s
22 m/s
20 m/s
16 m/s
12 m/s
8 m/s
4 m/s
30 m/s
28 m/s
26 m/s
24 m/s
22 m/s
20 m/s
18 m/s
16 m/s
14 m/s
12 m/s
10 m/s
8 m/s
6 m/s
4 m/s
2 m/s
3.0
2.8
2.6
2.4
2.2
2.0
1.8
1.6
1.4
1.2
1.0
0.8
0.6
0.4
0.2
15
14
13
12
11
10
9
8
7
6
5
4
3
2
1
90%
80%
70%
60%
50%
40%
30%
20%
10%
42
40
38
36
34
32
30
28
26
24
22
20
18
16
14
12
90+ cm
80-90 cm
70-80 cm
60-70 cm
50-60 cm
40-50 cm
30-40 cm
20-30 cm
10-20 cm
1-10 cm
Sneeuwval
Natte sneeuw
Regen
>120 mm
115 mm
110 mm
105 mm
100 mm
95 mm
90 mm
85 mm
80 mm
75 mm
70 mm
65 mm
60 mm
55 mm
50 mm
45 mm
45 mm
40 mm
35 mm
30 mm
25 mm
20 mm
15 mm
10 mm
5 mm
0.1 mm
960 hPa
880 hPa
800 hPa
720 hPa
640 hPa
560 hPa
584 gpdm
568 gpdm
552 gpdm
536 gpdm
520 gpdm
504 gpdm
488 gpdm
Extreem zwaar Noodweer Kans op onweer
15% 15% 5% 50% 15%

Dag




Kaart






35°
30°
25°
20°
15°
10°
-5°
-10°
-15°
-20°
-25°
-30°
-35°
120> km/h
105 km/h
90 km/h
75 km/h
60 km/h
50 km/h
40 km/h
30 km/h
20 km/h
10 km/h
0 km/h
Extreem zwaar Noodweer Kans op onweer
15% 15% 5% 50% 15%
>120 mm
115 mm
110 mm
105 mm
100 mm